Regional Weather Roundup
Issued by NWS

Home | Current Version | Previous Version | Graphics & Text | Print | Product List | Glossary On
Versions: 1 2 3 4 5 6 7 8 9 10 11 12 13 14 15 16 17 18 19 20 21 22 23 24 25 26 27 28 29 30 31 32 33 34 35 36 37 38 39 40 41 42 43 44 45 46 47 48 49 50
000
ASUS43 KFSD 280010
RWRSD

WEATHER ROUNDUP FOR SOUTH DAKOTA
NATIONAL WEATHER SERVICE SIOUX FALLS SD
600 PM CST FRI FEB 27 2015

NOTE: "FAIR" INDICATES FEW OR NO CLOUDS BELOW 12,000 FEET WITH NO
SIGNIFICANT WEATHER AND/OR OBSTRUCTIONS TO VISIBILITY.


SDZ001>005-009-010-012>017-280100-
NORTHWEST AND NORTH CENTRAL SOUTH DAKOTA

CITY           SKY/WX    TMP DP  RH WIND       PRES   REMARKS
BUFFALO          N/A     24  10  55 SE16      29.92S WCI  11
FAITH            N/A     25   4  40 S18       30.06F WCI  11
MOBRIDGE       CLEAR     19   5  54 SE16      30.18F WCI   4
$$

SDZ012>016-024>037-041>051-057-063-072>074-280100-
SOUTHWEST AND SOUTH CENTRAL SOUTH DAKOTA

CITY           SKY/WX    TMP DP  RH WIND       PRES   REMARKS
RAPID CTY ARPT CLOUDY    22  13  68 S15       30.01F WCI   9
PIERRE         CLEAR     25  -2  31 SE16      30.21F WCI  12
CUSTER         LGT SNOW  12   6  77 S6        29.86F WCI   3
ELLSWORTH AFB  MOCLDY    23  12  62 S17       29.99S WCI   9
PHILIP         CLOUDY    29   5  36 S15       30.12F WCI  18
PINE RIDGE     CLOUDY    23   8  52 S15G23    30.05F WCI  10
WINNER         FAIR      25  -5  26 S12       30.23F WCI  14
$$

SDZ004>011-016>023-039-040-280100-
NORTHEAST SOUTH DAKOTA

CITY           SKY/WX    TMP DP  RH WIND       PRES   REMARKS
ABERDEEN       CLEAR     11   1  64 S9        30.35F WCI  -2
WATERTOWN      CLEAR      8  -2  63 S8        30.36S WCI  -4
SISSETON         N/A     11   1  64 SW7       30.39F WCI   0
$$

SDZ017-020-022-023-036>040-048>070-280100-
SOUTHEAST SOUTH DAKOTA

CITY           SKY/WX    TMP DP  RH WIND       PRES   REMARKS
SIOUX FALLS    CLEAR     13   2  61 SE13      30.42F WCI  -2
HURON          CLEAR     18   2  49 SE10      30.35F WCI   6
CHAMBERLAIN    CLEAR     22  -6  28 SE12      30.28F WCI  11
MITCHELL       CLEAR     21  -1  38 SE14      30.38F WCI   8
YANKTON        CLEAR     19   0  42 S12       30.43R WCI   7
$$

ABBREVIATIONS USED IN REMARKS
   TC - TEMPERATURE IN CELSIUS
  WCI - WIND CHILL INDEX
   HX - HEAT INDEX
  VSB - VISIBILITY



USA.gov is the U.S. government's official web portal to all federal, state and local government web resources and services.